FW1143 Groton MA US current weather conditions

sailwx.info

Wind from 320 at 6 knots gusting 13

Air temperature 3.3° C
Dewpoint -4.6° C

Last reported at 2019-Dec-05 15:02 UTC.
Time now 2019-Dec-05 15:31 UTC

Location: N 42°36' W 071°34'.
View on Google Maps.

See reports from other nearby stations

  
Tides and Currents Weather Stations Pressure Air Temp Water Temp Dewpoint Dewpoint Depression Visibility Wind Speed Wind Dir Waves Ship Positions
date/time (UTC)wind fromknots sea level pressurealtimeterstation pressurevisibilityair tempwater tempwave heightnotes
2019-Dec-05 15:02 320 6 gusting 13 3.3
2019-Dec-05 14:46 291 6 gusting 10 2.8
2019-Dec-05 14:31 278 6 gusting 9 2.2
2019-Dec-05 14:15 265 2 gusting 11 1.7
2019-Dec-05 14:00 266 6 gusting 9 1.1
2019-Dec-05 13:45 276 5 gusting 12 0.6
2019-Dec-05 13:30 244 1 gusting 6 -0.0
2019-Dec-05 13:15 280 0 gusting 3 -0.0
2019-Dec-05 13:00 275 1 gusting 5 -0.6
2019-Dec-05 12:45 275 0 gusting 6 -1.1
2019-Dec-05 12:31 286 3 gusting 8 -1.1
2019-Dec-05 12:17 289 2 gusting 5 -1.7
2019-Dec-05 12:01 284 0 gusting 4 -1.7
2019-Dec-05 11:46 284 0 gusting 2 -2.2
2019-Dec-05 11:31 284 -1.7
2019-Dec-05 11:16 284 0 gusting 2 -1.7
2019-Dec-05 11:00 284 -1.7
2019-Dec-05 10:46 284 0 gusting 2 -1.7
2019-Dec-05 10:30 284 0 gusting 2 -1.7
2019-Dec-05 10:15 284 0 gusting 1 -1.7
2019-Dec-05 10:00 284 0 gusting 6 -1.7
2019-Dec-05 09:45 290 2 gusting 4 -1.1
2019-Dec-05 09:30 290 1 gusting 6 -1.1
2019-Dec-05 09:15 290 0 gusting 2 -1.7
2019-Dec-05 09:01 290 0 gusting 2 -1.1
2019-Dec-05 08:46 290 0 gusting 1 -1.1
2019-Dec-05 08:31 290 -1.1
2019-Dec-05 08:16 290 0 gusting 2 -0.6
2019-Dec-05 08:01 290 -0.6
2019-Dec-05 07:45 290 0 gusting 3 -0.6
2019-Dec-05 07:31 271 0 gusting 5 -1.1
2019-Dec-05 07:15 271 0 gusting 5 -1.1
2019-Dec-05 07:01 284 1 gusting 6 -0.6
2019-Dec-05 06:45 284 1 gusting 3 -0.6
2019-Dec-05 06:30 284 2 gusting 4 -0.0
2019-Dec-05 06:15 284 1 gusting 3 -0.0
2019-Dec-05 06:00 284 0 gusting 2 -0.0
2019-Dec-05 05:46 284 0 gusting 2 -0.0
2019-Dec-05 05:31 284 0 gusting 2 -0.0
2019-Dec-05 05:16 284 0 gusting 2 -0.0
2019-Dec-05 05:02 284 0 gusting 3 -0.0
2019-Dec-05 04:47 284 0 gusting 4 0.6
2019-Dec-05 04:31 284 2 gusting 4 0.6
2019-Dec-05 04:15 284 1 gusting 3 -0.0
2019-Dec-05 04:00 284 -0.0
2019-Dec-05 03:45 284 -0.0
2019-Dec-05 03:30 284 1 gusting 2 -0.0
2019-Dec-05 03:15 284 0.6
2019-Dec-05 03:00 284 1 gusting 4 0.6
2019-Dec-05 02:46 284 0 gusting 3 0.6
2019-Dec-05 02:30 284 0 gusting 4 0.6
2019-Dec-05 02:17 284 1 gusting 3 0.6
2019-Dec-05 02:01 284 1 gusting 3 0.6
2019-Dec-05 01:31 242 0 gusting 3 0.6
2019-Dec-05 01:16 242 0.6
2019-Dec-05 01:01 242 0 gusting 2 0.6
2019-Dec-05 00:46 242 0.6
2019-Dec-05 00:30 242 0.6
2019-Dec-05 00:15 242 0.6
2019-Dec-05 00:01 242 0 gusting 3 0.6
2019-Dec-04 23:45 242 0.6
2019-Dec-04 23:30 242 0.6
2019-Dec-04 23:15 242 0.6
2019-Dec-04 23:00 242 1.1
2019-Dec-04 22:47 242 1.1
2019-Dec-04 22:32 242 1.1
2019-Dec-04 22:16 242 1.1
2019-Dec-04 22:01 242 1.1
2019-Dec-04 21:46 242 1.7
2019-Dec-04 21:31 242 0 gusting 3 1.7
2019-Dec-04 21:16 242 0 gusting 3 1.7
2019-Dec-04 21:01 242 1.7
2019-Dec-04 20:47 242 1.7
2019-Dec-04 20:32 242 1.7
2019-Dec-04 20:18 242 0 gusting 2 2.2
2019-Dec-04 20:01 242 1 gusting 3 2.2
2019-Dec-04 19:46 242 2.2
2019-Dec-04 19:31 246 2 gusting 4 2.2
2019-Dec-04 19:16 229 1 gusting 6 2.2
2019-Dec-04 19:02 259 0 gusting 4 2.2
2019-Dec-04 18:31 258 1 gusting 5 2.2
2019-Dec-04 18:16 291 1 gusting 6 2.2
2019-Dec-04 18:02 240 0 gusting 2 1.7
2019-Dec-04 17:47 240 1.7
2019-Dec-04 17:31 240 1 gusting 3 1.7
2019-Dec-04 17:16 240 1.1
2019-Dec-04 17:01 239 1 gusting 6 0.6
2019-Dec-04 16:46 236 0 gusting 4 0.6
2019-Dec-04 16:31 206 0 gusting 6 0.6
2019-Dec-04 16:15 237 0 gusting 4 0.6
2019-Dec-04 16:02 244 0 gusting 4 -0.0
2019-Dec-04 15:46 279 1 gusting 4 -0.0
2019-Dec-04 15:30 279 -0.0
2019-Dec-04 15:15 279 1 gusting 3 -0.0
2019-Dec-04 15:00 279 1 gusting 3 -0.0
2019-Dec-04 14:45 279 0 gusting 3 -0.6
2019-Dec-04 14:31 279 1 gusting 3 -0.6
2019-Dec-04 14:15 279 1 gusting 3 -0.6
2019-Dec-04 14:00 279 0 gusting 2 -0.6
2019-Dec-04 13:45 279 0 gusting 3 -1.1
2019-Dec-04 13:30 279 0 gusting 5 -1.1
2019-Dec-04 13:15 279 0 gusting 3 -1.7
2019-Dec-04 13:00 279 2 gusting 6 -1.7
2019-Dec-04 12:45 279 0 gusting 1 -2.2
2019-Dec-04 12:30 279 -2.2
2019-Dec-04 12:15 279 -2.2
2019-Dec-04 12:00 279 0 gusting 3 -2.2
2019-Dec-04 11:45 279 0 gusting 4 -2.8
2019-Dec-04 11:31 279 0 gusting 3 -3.3
2019-Dec-04 11:02 279 -3.9
2019-Dec-04 10:47 279 -3.3
2019-Dec-04 10:32 279 -3.9
2019-Dec-04 10:17 279 -3.3
2019-Dec-04 10:01 279 0 gusting 1 -2.8
2019-Dec-04 09:47 279 -2.8
2019-Dec-04 09:32 279 1 gusting 6 -2.8
2019-Dec-04 09:16 279 0 gusting 4 -2.8
2019-Dec-04 09:01 279 0 gusting 6 -3.3
2019-Dec-04 08:47 279 3 gusting 6 -3.3
2019-Dec-04 08:31 279 0 gusting 3 -3.9
2019-Dec-04 08:17 279 0 gusting 2 -3.9
2019-Dec-04 08:02 279 0 gusting 2 -3.9
2019-Dec-04 07:46 279 0 gusting 2 -4.4
2019-Dec-04 07:31 279 0 gusting 3 -3.3
2019-Dec-04 07:16 279 1 gusting 4 -3.3
2019-Dec-04 07:01 279 3 gusting 6 -2.8
2019-Dec-04 06:46 279 4 gusting 6 -2.8
2019-Dec-04 06:31 279 5 gusting 7 -2.8
2019-Dec-04 06:17 271 1 gusting 3 -2.8
2019-Dec-04 06:01 271 0 gusting 3 -2.8
2019-Dec-04 05:46 271 0 gusting 4 -2.8
2019-Dec-04 05:30 259 0 gusting 3 -3.3
2019-Dec-04 05:15 315 0 gusting 3 -3.9
2019-Dec-04 05:01 315 -3.3
2019-Dec-04 04:45 315 0 gusting 3 -2.8
2019-Dec-04 04:30 315 1 gusting 4 -2.8
2019-Dec-04 04:15 315 0 gusting 2 -2.8
2019-Dec-04 04:00 315 2 gusting 6 -2.2
2019-Dec-04 03:45 304 2 gusting 4 -2.2
2019-Dec-04 03:33 289 0 gusting 3 -1.7
2019-Dec-04 03:16 289 2 gusting 6 -1.7
2019-Dec-04 03:03 313 3 gusting 6 -1.7
2019-Dec-04 02:47 306 5 gusting 7 -1.7
2019-Dec-04 02:31 303 4 gusting 8 -1.7
2019-Dec-04 02:15 289 6 gusting 10 -1.7
2019-Dec-04 02:01 288 5 gusting 10 -1.7
2019-Dec-04 01:45 300 6 gusting 10 -2.2
2019-Dec-04 01:31 275 2 gusting 5 -2.2
2019-Dec-04 01:16 276 4 gusting 7 -1.7
2019-Dec-04 01:00 287 5 gusting 8 -1.1
2019-Dec-04 00:45 328 6 gusting 8 -1.1
2019-Dec-04 00:30 009 6 gusting 12 -1.1
2019-Dec-04 00:02 323 5 gusting 10 -1.1
2019-Dec-03 23:46 327 3 gusting 9 -1.1
2019-Dec-03 23:32 323 6 gusting 11 -1.1
2019-Dec-03 23:17 307 6 gusting 10 -1.1
2019-Dec-03 23:00 336 2 gusting 6 -1.1
2019-Dec-03 22:46 319 3 gusting 6 -0.6
2019-Dec-03 22:30 318 3 gusting 7 -0.6
2019-Dec-03 22:15 309 3 gusting 8 -0.6
2019-Dec-03 22:00 293 3 gusting 6 -1.1
2019-Dec-03 21:45 302 3 gusting 6 -0.6
2019-Dec-03 21:30 317 3 gusting 8 -0.6
2019-Dec-03 21:15 315 3 gusting 7 -0.6
2019-Dec-03 21:00 328 4 gusting 11 -0.0
2019-Dec-03 20:46 311 5 gusting 10 -0.0
2019-Dec-03 20:31 349 6 gusting 11 -0.0
2019-Dec-03 20:17 336 4 gusting 10 -0.0
2019-Dec-03 20:01 331 6 gusting 9 -0.0
2019-Dec-03 19:46 342 6 gusting 12 -0.6
2019-Dec-03 19:31 350 6 gusting 9 -0.6
2019-Dec-03 19:15 337 3 gusting 11 -0.6
2019-Dec-03 19:01 338 6 gusting 12 -0.6
2019-Dec-03 18:45 331 6 gusting 12 -1.1
2019-Dec-03 18:30 330 4 gusting 8 -0.6
2019-Dec-03 18:15 331 6 gusting 9 -0.6
2019-Dec-03 18:00 344 7 gusting 11 -1.1
2019-Dec-03 17:45 337 3 gusting 8 -1.1
2019-Dec-03 17:30 337 2 gusting 6 -1.1
2019-Dec-03 17:17 294 5 gusting 8 -1.7
2019-Dec-03 17:01 330 5 gusting 9 -1.1
2019-Dec-03 16:46 324 4 gusting 9 -1.1
2019-Dec-03 16:31 336 4 gusting 7 -1.7
2019-Dec-03 16:16 325 4 gusting 10 -1.1
2019-Dec-03 16:01 335 3 gusting 7 -1.1
2019-Dec-03 15:45 329 4 gusting 7 -1.1
2019-Dec-03 15:31 333 2 gusting 5 -1.7
2019-Dec-03 15:15 340 1 gusting 4 -1.7
2019-Dec-03 15:00 338 2 gusting 4 -1.7